Time,TemperatureF,DewpointF,PressureIn,WindDirection,WindDirectionDegrees,WindSpeedMPH,WindSpeedGustMPH,Humidity,HourlyPrecipIn,Conditions,Clouds,dailyrainin,SoftwareType,DateUTC
2013-03-14 00:00:00,30.0,24.0,-100.00,North,-999,-999.0,-999.0,78,-99.99,,,-99.99,,2013-03-14 06:00:00,
2013-03-14 00:52:00,30.0,24.0,-100.00,North,-999,-999.0,-999.0,78,-99.99,,,-99.99,,2013-03-14 06:52:00,
2013-03-14 01:00:00,30.0,24.0,-100.00,North,-999,-999.0,-999.0,78,-99.99,,,-99.99,,2013-03-14 07:00:00,
2013-03-14 01:52:00,30.0,24.0,-100.00,North,-999,-999.0,-999.0,78,-99.99,,,-99.99,,2013-03-14 07:52:00,
2013-03-14 02:00:00,30.0,24.0,-100.00,North,-999,-999.0,-999.0,78,-99.99,,,-99.99,,2013-03-14 08:00:00,
2013-03-14 03:00:00,28.0,23.0,-100.00,North,-999,-999.0,-999.0,79,-99.99,,,-99.99,,2013-03-14 09:00:00,
2013-03-14 03:52:00,28.0,23.0,-100.00,North,-999,-999.0,-999.0,79,-99.99,,,-99.99,,2013-03-14 09:52:00,
2013-03-14 04:00:00,26.0,21.0,-100.00,North,-999,-999.0,-999.0,78,-99.99,,,-99.99,,2013-03-14 10:00:00,
2013-03-14 05:00:00,25.0,19.0,-100.00,North,-999,-999.0,-999.0,78,-99.99,,,-99.99,,2013-03-14 11:00:00,
2013-03-14 06:00:00,24.0,19.0,-100.00,North,-999,-999.0,-999.0,78,-99.99,,,-99.99,,2013-03-14 12:00:00,
2013-03-14 07:00:00,24.0,18.0,-100.00,North,-999,-999.0,-999.0,78,-99.99,,,0.00,,2013-03-14 13:00:00,
2013-03-14 07:52:00,24.0,18.0,-100.00,North,-999,-999.0,-999.0,78,-99.99,,,0.00,,2013-03-14 13:52:00,
2013-03-14 08:00:00,25.0,19.0,-100.00,North,-999,-999.0,-999.0,78,-99.99,,,0.00,,2013-03-14 14:00:00,
2013-03-14 11:00:00,44.0,38.0,-100.00,North,-999,-999.0,-999.0,78,-99.99,,,-99.99,,2013-03-14 17:00:00,
2013-03-14 11:42:00,44.0,38.0,-100.00,North,-999,-999.0,-999.0,78,-99.99,,,-99.99,,2013-03-14 17:42:00,
2013-03-14 11:53:00,44.0,38.0,-100.00,North,-999,-999.0,-999.0,78,-99.99,,,-99.99,,2013-03-14 17:53:00,
2013-03-14 12:00:00,46.0,39.0,-100.00,North,-999,-999.0,-999.0,77,-99.99,,,0.00,,2013-03-14 18:00:00,
2013-03-14 12:52:00,46.0,39.0,-100.00,North,-999,-999.0,-999.0,77,-99.99,,,0.00,,2013-03-14 18:52:00,
2013-03-14 14:00:00,48.0,41.0,-100.00,North,-999,-999.0,-999.0,77,-99.99,,,0.00,,2013-03-14 20:00:00,
2013-03-14 15:00:00,50.0,43.0,-100.00,North,-999,-999.0,-999.0,77,-99.99,,,-99.99,,2013-03-14 21:00:00,
2013-03-14 15:53:00,50.0,43.0,-100.00,North,-999,-999.0,-999.0,77,-99.99,,,-99.99,,2013-03-14 21:53:00,
2013-03-14 16:00:00,49.0,42.0,-100.00,North,-999,-999.0,-999.0,77,-99.99,,,-99.99,,2013-03-14 22:00:00,
2013-03-14 17:00:00,45.0,38.0,-100.00,North,-999,-999.0,-999.0,77,-99.99,,,-99.99,,2013-03-14 23:00:00,
2013-03-14 18:00:00,43.0,37.0,-100.00,North,-999,-999.0,-999.0,77,-99.99,,,0.00,,2013-03-15 00:00:00,
2013-03-14 19:00:00,40.0,33.0,-100.00,North,-999,-999.0,-999.0,78,-99.99,,,0.00,,2013-03-15 01:00:00,
2013-03-14 20:00:00,36.0,-99.9,-100.00,North,-999,-999.0,-999.0,-999,-99.99,,,-99.99,,2013-03-15 02:00:00,
2013-03-14 20:52:00,36.0,-99.9,-100.00,North,-999,-999.0,-999.0,-999,-99.99,,,-99.99,,2013-03-15 02:52:00,
2013-03-14 21:00:00,33.0,27.0,-100.00,North,-999,-999.0,-999.0,78,-99.99,,,0.00,,2013-03-15 03:00:00,
2013-03-14 21:53:00,33.0,27.0,-100.00,North,-999,-999.0,-999.0,78,-99.99,,,0.00,,2013-03-15 03:53:00,
2013-03-14 22:00:00,31.0,25.0,-100.00,North,-999,-999.0,-999.0,78,-99.99,,,0.00,,2013-03-15 04:00:00,
2013-03-14 23:00:00,31.0,25.0,-100.00,North,-999,-999.0,-999.0,78,-99.99,,,0.00,,2013-03-15 05:00:00,
2013-03-14 23:42:00,31.0,25.0,-100.00,North,-999,-999.0,-999.0,78,-99.99,,,0.00,,2013-03-15 05:42:00,
2013-03-14 23:52:00,31.0,25.0,-100.00,North,-999,-999.0,-999.0,78,-99.99,,,0.00,,2013-03-15 05:52:00,